SCP
0 0 0 0 0 0 0 0 1 0 0 0 0 1 1 1 1 1 1 1 1 1 1 1 1 0 0 0 0 1 1 1 1 0 0 0 0 0 1 1 1 0 0
0 0 0 0 0 0 0 0 0 0 0 0 1 1 1 1 1 1 1 1 1 1 1 1 1 1 1 1 1 1 1 1 1 1 0 0 0 0 0 1 1 0 0
0 0 0 0 0 0 0 0 0 0 1 1 1 0 0 0 1 1 1 1 1 1 1 1 1 1 1 1 1 1 1 1 1 1 1 0 0 0 0 0 0 0 1
0 0 0 0 0 0 0 0 0 0 1 1 1 1 1 0 0 1 1 1 1 1 1 1 0 1 1 1 1 1 1 1 1 1 1 0 0 0 0 0 0 0 0
0 0 0 0 0 0 0 0 0 0 1 1 1 1 1 1 0 0 1 1 1 1 1 1 0 1 1 1 1 1 1 1 1 1 1 0 0 0 0 0 0 0 0
0 0 0 0 0 0 0 0 0 0 0 0 1 1 1 1 0 0 0 1 1 1 1 1 1 1 1 1 1 1 1 1 1 1 1 0 0 0 0 0 0 0 0
0 0 0 0 0 0 0 0 0 0 0 0 0 1 1 0 0 0 0 0 0 0 0 1 1 1 1 1 1 1 1 1 1 1 0 0 0 0 0 0 0 0 0
0 0 0 0 0 0 0 0 0 0 0 0 0 0 0 0 0 0 0 0 0 0 0 1 1 1 1 1 1 1 1 1 0 0 0 0 0 1 0 0 0 0 0
0 0 0 0 0 0 0 0 0 0 0 0 0 0 0 0 0 0 0 0 0 0 0 1 1 1 1 1 1 1 1 0 0 0 0 0 0 1 0 0 0 0 0
0 0 0 0 0 0 0 0 0 0 0 0 0 0 0 0 0 0 0 0 0 0 1 1 1 1 1 1 0 0 0 0 0 0 0 0 1 1 1 0 0 0 0
0 0 0 0 0 0 0 0 0 0 0 0 0 0 0 0 0 0 0 1 1 0 1 1 1 1 1 0 0 0 0 0 0 0 0 0 1 1 1 1 1 1 1
0 0 0 0 0 0 0 0 0 0 0 0 0 0 0 0 0 0 0 0 0 0 0 1 1 1 0 0 0 0 0 0 0 0 0 0 1 1 1 1 1 1 1
0 0 0 0 0 0 0 0 0 0 0 0 0 0 0 0 0 0 0 0 0 0 0 0 0 0 0 0 0 0 0 0 0 0 0 0 1 1 1 1 1 1 1
0 0 0 0 0 0 0 0 0 0 0 0 0 0 0 0 0 0 0 0 0 0 0 0 0 0 0 0 0 0 0 0 0 0 0 0 1 1 1 1 1 1 1
0 0 0 0 0 0 0 0 0 0 0 0 0 0 0 0 0 0 0 0 0 0 0 0 0 0 0 0 0 0 0 0 0 0 0 1 1 1 1 1 1 1 1
0 0 0 0 0 0 0 0 0 0 0 0 0 0 0 0 0 0 0 0 0 0 0 0 0 0 0 0 0 0 0 0 0 0 0 0 1 1 1 1 1 1 1
0 0 0 0 0 0 0 0 0 0 0 0 0 0 0 0 0 0 0 0 0 0 0 0 0 0 0 0 0 0 0 0 0 0 0 0 0 0 1 1 1 1 1
0 0 0 1 1 1 1 0 0 0 0 0 0 0 0 0 0 0 0 0 0 0 0 0 0 0 0 0 0 0 0 0 0 0 0 0 0 0 0 0 0 1 1
0 0 0 1 1 1 1 1 0 0 0 0 0 0 0 0 0 0 0 0 0 0 0 0 0 0 0 0 0 0 0 0 0 0 0 0 0 0 0 0 0 0 0
0 0 0 1 1 1 1 0 0 0 0 0 0 0 0 0 0 0 0 0 0 0 0 0 0 0 0 0 0 0 0 0 0 0 0 0 0 0 0 0 0 0 0
1 0 0 1 1 1 1 0 0 0 0 0 0 0 0 0 0 0 0 0 0 0 0 0 0 0 0 0 0 0 0 0 0 0 0 0 0 0 0 0 0 0 0
1 1 1 1 1 1 1 0 0 0 0 0 0 0 0 0 0 0 0 0 0 0 0 0 0 0 0 0 0 0 0 0 0 0 0 0 0 0 0 0 0 0 0
1 1 1 1 0 0 0 0 0 0 0 0 0 0 0 0 0 0 0 0 0 0 0 0 0 0 0 0 0 0 0 0 0 0 0 0 0 0 0 0 0 0 0
1 1 1 1 0 0 0 0 0 0 0 0 0 0 0 0 0 0 0 0 0 0 0 0 0 0 0 0 0 0 0 0 0 0 0 0 0 0 0 0 0 0 0
1 1 1 1 1 0 0 0 0 0 0 0 0 0 0 0 0 0 0 0 0 0 0 0 0 0 0 0 0 0 0 0 0 0 0 0 0 0 0 0 0 0 0
1 1 1 1 1 0 0 0 0 0 0 0 0 0 0 0 0 0 0 0 0 0 0 0 0 0 0 0 0 0 0 0 0 0 0 0 0 0 0 0 0 0 0
Wind_Speed
1 2 1 5 6 7 8 8 8 9 10 10 11 11 11 11 10 10 10 10 10 10 10 9 9 10 10 9 8 8 8 8 9 9 9 8 8 8 8 9 8 5 9
0 1 3 5 6 7 8 8 8 9 9 10 10 11 10 10 10 10 9 9 9 9 10 10 10 10 10 9 8 8 8 8 9 9 9 8 7 8 9 9 9 6 10
2 2 2 5 6 7 8 8 9 9 10 10 10 10 10 9 9 9 9 9 9 10 10 10 10 10 10 9 9 8 9 9 10 10 9 5 5 8 9 9 9 9 10
3 2 2 5 7 7 8 9 9 9 9 9 10 10 9 9 9 9 9 9 10 10 10 10 10 11 11 11 11 12 12 11 11 10 5 5 4 8 9 9 9 9 9
3 2 2 6 7 7 8 9 9 9 9 9 9 9 9 8 9 9 9 9 9 10 10 10 10 11 11 11 11 12 12 12 12 9 5 5 4 7 9 9 8 8 8
3 2 3 7 7 8 8 8 9 8 8 8 8 8 7 8 8 9 9 9 9 9 9 9 10 10 11 11 11 12 12 12 9 5 5 4 3 6 8 8 8 8 8
2 2 3 7 7 8 7 8 8 8 8 8 7 7 7 7 8 8 8 8 9 9 9 9 10 10 11 11 11 11 12 11 6 5 4 4 4 7 8 8 8 9 8
3 3 3 6 7 7 7 7 7 7 7 7 7 7 7 7 7 7 7 7 8 8 9 9 10 11 11 11 11 11 11 10 7 5 4 3 5 8 8 9 9 9 8
3 4 3 3 4 6 6 6 6 6 7 7 6 6 6 6 6 7 6 6 7 7 8 9 9 10 11 11 11 11 12 11 6 4 4 3 7 9 9 9 10 9 9
3 3 2 3 4 4 3 4 6 6 6 6 7 7 6 6 6 6 5 6 6 7 8 8 9 10 11 11 12 12 11 9 5 4 3 4 9 9 9 10 10 10 10
2 2 2 2 2 3 2 4 5 6 6 6 6 7 6 4 4 4 5 6 7 7 8 9 9 10 11 11 12 12 9 4 4 4 3 7 9 10 10 10 10 10 10
1 0 1 1 1 2 2 3 3 3 4 4 3 4 3 3 3 4 6 8 8 9 9 10 10 9 8 5 8 9 4 5 5 4 4 9 10 10 10 10 10 10 10
2 1 1 1 1 1 2 2 2 2 2 3 3 3 3 3 3 3 3 4 5 6 5 6 6 5 5 4 4 5 5 5 4 4 6 10 10 10 10 10 10 10 9
2 2 1 2 2 1 2 2 1 1 1 2 2 3 2 2 2 2 2 2 3 2 4 4 4 5 6 6 6 6 6 5 4 4 6 12 11 10 10 10 10 10 9
2 2 2 3 2 2 2 1 2 1 1 1 2 2 2 2 2 2 2 2 3 3 4 4 4 5 6 6 5 6 6 6 6 5 5 13 14 12 11 11 10 10 10
3 2 2 3 3 3 2 2 1 1 1 2 1 2 2 2 2 2 3 3 3 3 3 4 5 5 5 5 6 6 6 6 6 6 6 8 14 14 12 12 11 11 11
3 3 3 3 3 3 3 2 2 1 2 2 1 2 2 2 3 3 3 3 2 3 4 4 5 4 5 5 5 6 6 6 6 7 7 6 7 12 15 13 13 12 11
3 3 3 3 4 3 3 3 2 2 2 2 2 2 2 3 3 3 3 2 3 3 3 4 4 4 4 4 4 4 5 5 6 6 6 6 6 6 10 15 14 13 13
5 4 3 3 3 3 3 3 3 2 2 2 2 2 2 3 3 3 3 2 3 3 3 4 3 3 4 4 4 5 4 4 4 5 6 7 6 6 6 10 14 14 13
4 4 4 3 3 4 3 3 3 3 2 2 2 2 2 2 3 3 3 3 3 3 3 3 4 4 3 4 5 6 4 4 4 5 5 5 5 6 6 7 6 9 14
4 4 4 4 3 4 2 2 2 1 1 1 2 3 3 2 3 3 3 3 3 3 3 4 4 5 3 2 4 4 4 4 5 4 4 4 5 6 6 6 5 5 5
5 4 4 4 4 4 3 2 2 2 1 1 1 2 3 3 2 3 3 3 3 3 4 3 3 3 1 1 2 3 2 3 4 4 4 4 5 4 6 7 6 6 5
5 5 4 4 4 4 4 3 3 3 2 2 2 2 2 2 2 3 3 3 3 3 3 3 3 3 2 1 1 3 3 1 1 3 4 4 4 4 4 4 6 6 6
5 4 4 4 3 3 4 4 5 3 2 1 0 0 2 2 2 3 3 3 3 3 3 2 2 2 3 2 1 2 2 3 3 1 2 3 4 5 5 5 5 5 6
5 5 4 4 3 3 3 4 4 3 2 1 1 2 2 2 2 2 3 3 3 2 2 2 2 2 2 2 2 2 2 2 2 3 1 2 3 3 3 4 4 4 5
4 4 4 4 3 3 3 4 4 5 4 3 2 2 1 1 2 2 2 2 2 2 2 2 2 2 2 2 2 2 2 2 2 3 3 1 1 2 2 3 3 3 3
Wind_Direction
301 290 111 98 94 93 88 85 81 85 90 92 95 96 96 94 92 92 88 85 82 81 79 75 74 74 72 71 69 71 74 79 81 79 76 75 78 78 76 75 74 70 79
201 326 97 104 98 95 92 85 83 89 91 93 96 96 95 94 92 90 87 86 82 81 79 76 76 73 71 73 70 72 76 82 85 77 72 67 72 76 77 78 78 75 76
72 40 86 104 99 96 93 89 86 88 91 95 98 95 93 91 89 89 87 84 81 81 80 78 75 70 67 67 64 65 82 83 79 72 62 43 53 73 75 77 79 80 78
82 54 72 105 99 97 93 92 91 90 92 94 97 95 92 90 87 87 84 81 80 82 81 76 71 67 64 64 63 68 78 78 75 70 52 38 40 71 75 75 78 81 81
72 50 76 101 100 96 93 91 92 93 93 94 94 95 92 90 88 87 82 79 79 82 82 78 71 68 66 68 68 71 75 74 72 60 47 40 34 69 73 72 75 81 81
72 51 83 96 98 94 94 93 93 94 93 91 90 91 91 90 89 88 80 75 75 78 79 77 72 69 67 68 71 74 75 74 65 52 45 39 32 68 73 72 72 79 80
81 53 79 97 96 95 93 92 92 93 92 89 86 84 84 84 86 86 78 73 72 74 74 73 72 69 69 71 73 75 73 71 62 49 42 34 41 66 74 77 75 75 77
92 59 55 89 94 92 89 89 87 87 88 85 83 80 78 78 79 80 76 72 70 72 73 72 70 69 72 76 75 74 68 62 55 46 41 34 58 67 71 76 74 74 74
79 68 47 48 65 75 84 87 85 81 80 76 74 76 72 70 70 71 70 70 69 70 72 71 68 69 73 76 75 72 66 57 46 34 46 40 65 72 72 73 73 74 75
69 63 54 41 49 49 48 75 81 77 73 66 60 62 59 54 52 54 57 60 65 69 71 72 70 72 73 75 73 69 64 52 36 34 33 54 66 71 75 74 74 74 75
75 46 55 42 42 41 37 60 58 59 54 51 45 50 46 33 31 36 42 55 65 71 73 76 74 74 73 70 70 66 58 42 37 34 33 56 66 71 75 75 76 75 72
147 322 84 73 53 42 45 52 41 41 40 43 37 40 39 35 28 42 42 52 60 65 71 77 77 74 72 62 61 59 48 41 38 30 37 54 62 68 72 73 75 72 71
193 202 148 127 83 65 51 58 44 36 40 39 38 42 43 40 35 39 39 36 42 54 59 67 71 67 69 67 61 55 48 43 33 26 35 53 59 66 71 70 71 71 71
170 178 167 142 123 94 75 68 68 57 53 47 37 47 59 53 42 47 49 38 46 53 66 66 76 74 74 70 69 62 52 46 35 25 35 49 54 59 66 68 69 69 72
168 175 174 149 136 118 97 75 73 66 73 67 53 51 74 78 69 65 60 58 61 65 72 77 80 78 74 69 67 64 55 47 41 35 29 44 50 55 62 65 67 67 70
171 174 163 143 137 127 119 103 83 75 70 63 53 67 86 89 88 79 68 67 68 74 77 81 82 82 76 74 68 62 56 49 43 41 36 35 42 47 55 60 61 63 65
174 162 156 150 131 129 124 110 96 79 74 69 63 74 94 100 96 92 83 77 75 85 89 85 78 76 80 74 66 63 59 51 48 44 40 36 32 37 45 53 56 58 60
160 153 154 151 135 128 118 105 91 78 76 69 70 76 91 99 106 102 96 88 88 89 92 93 86 83 75 72 67 59 56 52 51 48 44 38 36 32 32 44 50 53 57
164 151 140 135 131 127 116 100 85 78 72 65 66 67 80 90 99 105 101 94 98 95 91 102 85 91 92 83 79 66 57 53 46 49 46 40 38 37 32 36 42 45 51
152 142 139 134 126 118 104 88 69 56 48 48 55 57 67 79 95 100 101 98 102 99 91 95 94 80 85 90 87 73 58 53 49 44 42 40 40 40 38 37 33 32 41
142 143 150 151 146 130 113 112 105 86 41 41 48 53 59 71 90 102 108 103 106 111 116 114 105 94 82 90 87 71 50 49 51 41 36 38 39 37 39 37 35 32 29
165 162 159 163 158 158 149 140 131 122 95 60 37 45 46 64 77 106 114 117 115 111 107 113 116 113 101 81 107 103 63 27 28 36 35 42 36 33 38 39 36 35 33
175 176 173 172 164 164 148 117 90 68 49 36 26 18 15 56 76 94 112 119 117 124 137 141 139 131 137 74 76 126 130 156 27 16 32 37 33 35 30 32 36 31 33
189 177 167 164 158 151 149 149 146 139 146 187 163 24 25 48 73 87 98 109 116 122 134 152 142 132 134 134 76 61 101 139 136 80 10 21 32 37 32 31 29 29 30
178 169 165 156 152 144 150 158 150 143 152 134 95 74 42 32 50 73 88 101 110 119 132 126 118 114 125 138 140 124 94 74 95 128 121 5 18 20 27 28 25 24 24
166 162 161 161 164 158 157 155 157 158 153 143 142 129 78 38 33 52 78 94 105 113 125 130 120 111 113 116 118 126 142 141 149 133 138 141 27 349 11 24 22 14 20